Location: Bothwell
(41.7170°N, 112.2589°W)
Time: 14:28:03
(UTC+00:00)

Vanguard 2 - Pass Details

Date: 17 May 2026
Orbit: 553 x 2894 km, 32.9° (Epoch: 8 June)

Event Time Altitude Azimuth Distance (km) Brightness Sun altitude
Rises 15:01:04 0° 278° (W) 6,498 11.7 30.4°
Reaches altitude 10° 15:06:47 10° 268° (W) 5,203 11.3 31.5°
Maximum altitude 15:17:13 24° 222° (SW) 3,413 10.7 33.4°
Drops below altitude 10° 15:24:54 10° 173° (S) 3,722 11.3 34.9°
Sets 15:28:12 0° 159° (SSE) 4,355 11.7 35.5°
